User: anonymous   Login
Location: *
(51.0333°S, 178.4667°E)
Time: 21:12:21
(UTC+00:00)
Language:

Meteor 1-20 Rocket - Orbit

View from above orbital plane
View from above orbital plane
View from above satellite
View from above satellite

Ground track
Ground track

The orbit data is extracted from the following two-line orbital elements,

1  7575U 74099B   20027.27203461 -.00000078 +00000-0 -49881-4 0  9990
2  7575 081.2453 103.4986 0050738 085.7549 274.9418 14.11062601320935
Epoch (UTC): 27 January 2020 06:31:43
Eccentricity: 0.0050738
inclination: 81.2453°
perigee height: 819 km
apogee height: 892 km
right ascension of ascending node: 103.4986°
argument of perigee: 85.7549°
revolutions per day: 14.11062601
mean anomaly at epoch: 274.9418°
orbit number at epoch: 32093

The dashed part of the orbit path shows where the satellite is in the earth's shadow,  

DLR